Lid_Strength_Index
3 3 3 2 3 3 3 3 2 1 1 1 1 2 2 2 3 2 3 2 1 -3 -2 1 1 2 2 3 3 2 7 9 8 9 7 5 6 4 3 4 4 3 3 2 1
3 3 3 2 3 3 3 3 3 2 1 1 1 2 2 3 1 3 1 -3 -1 -3 2 3 3 3 3 3 2 4 7 7 5 5 6 5 5 5 5 5 5 5 3 2 1
3 3 3 3 2 3 3 3 3 2 1 2 1 2 2 2 2 3 -2 -2 -2 -1 2 3 3 3 4 3 4 4 7 5 5 4 4 5 5 4 6 7 5 5 4 2 2
3 3 3 3 3 3 3 3 3 3 2 2 2 1 2 0 6 2 -3 -3 -3 2 3 3 3 3 4 5 4 6 5 4 4 4 5 5 4 6 5 5 3 3 3 2 2
2 2 3 3 3 3 3 4 3 3 3 3 3 1 1 2 2 1 -3 -1 2 3 4 3 3 4 5 4 4 5 5 4 4 4 4 4 5 6 6 4 3 3 3 3 2
2 3 3 4 4 4 4 4 4 4 4 3 3 2 2 4 1 2 2 2 3 3 2 2 3 2 4 5 5 4 5 5 4 4 4 6 6 5 5 3 4 3 3 3 2
2 3 3 4 4 4 4 4 5 4 4 3 2 1 2 4 1 2 2 2 2 2 3 2 1 3 3 5 3 4 6 6 5 5 5 4 7 7 4 4 4 4 3 3 2
2 2 2 2 3 4 4 4 5 4 3 3 3 1 3 2 1 1 1 2 2 2 2 1 1 2 3 3 5 6 7 13 6 5 5 5 10 6 4 4 5 4 4 3 3
2 2 2 2 3 3 5 5 4 3 3 3 1 1 4 3 3 2 1 2 1 2 2 1 1 3 4 7 11 7 10 8 8 5 6 6 8 6 4 4 5 4 4 4 3
2 2 3 3 3 3 4 5 4 4 3 1 2 4 3 4 3 2 1 2 2 2 3 2 3 5 5 8 11 9 8 7 8 6 6 7 8 6 5 5 5 4 4 4 3
2 3 3 3 3 3 3 2 3 4 4 5 5 4 3 3 3 3 2 2 2 3 5 3 6 7 6 5 5 6 7 8 7 6 7 7 7 6 5 5 5 5 4 4 3
3 3 3 3 3 4 2 4 5 5 6 4 4 3 3 3 4 3 2 3 3 5 4 5 7 5 5 5 6 6 7 8 7 6 7 7 8 6 6 5 5 5 4 4 3
3 3 3 3 3 3 2 4 3 3 5 5 4 3 3 3 4 4 3 3 4 5 5 6 6 4 5 6 6 6 7 7 8 7 6 7 8 8 6 5 4 4 4 3 4
4 4 3 4 3 1 2 2 1 2 7 7 5 3 2 3 4 2 2 3 4 5 5 5 4 5 6 6 6 11 6 6 7 8 10 7 10 9 7 7 6 5 4 4 3
4 4 4 5 1 2 2 1 2 3 11 6 5 1 2 4 3 3 1 3 5 5 5 6 6 6 6 6 5 7 5 6 7 8 9 9 9 10 7 8 7 5 4 4 3
4 4 4 3 1 1 1 1 1 7 11 7 5 5 4 4 4 3 3 2 3 5 5 5 4 5 5 5 5 5 6 7 7 10 13 10 9 10 9 7 6 5 4 3 3
4 4 5 2 2 1 0 2 7 10 6 7 7 5 5 5 5 4 5 5 6 7 7 6 6 5 4 6 5 6 8 14 13 16 13 8 9 8 6 5 5 5 4 4 3
5 6 4 1 1 0 1 4 10 7 7 5 6 6 6 5 6 5 5 6 5 5 7 8 10 6 4 5 7 7 7 11 14 13 11 10 10 8 5 4 4 4 3 3 3
6 1 1 -0 0 1 3 7 8 7 6 6 7 8 7 6 6 6 6 6 5 5 7 8 8 5 5 5 5 8 9 6 9 9 12 11 8 6 5 5 5 5 4 4 3
2 2 2 0 0 2 4 8 6 5 5 5 7 7 8 7 7 6 6 5 5 4 4 6 9 6 5 4 5 6 5 9 9 13 13 11 10 10 7 6 5 5 5 4 3
2 3 0 0 1 4 6 6 5 5 5 6 6 7 6 7 6 7 6 5 4 5 4 5 6 7 6 6 7 7 8 10 8 9 12 14 10 6 6 5 6 5 4 4 3
2 5 0 1 5 4 6 6 9 6 5 5 5 6 6 6 7 7 7 5 4 4 6 4 6 9 8 6 5 5 6 7 10 10 9 9 10 5 5 5 5 4 4 3 3
4 3 0 2 6 6 5 7 6 6 6 5 6 5 5 6 7 6 6 4 4 4 5 5 7 10 9 7 6 8 7 7 6 7 10 12 11 5 5 5 4 4 4 3 3
3 6 3 3 3 5 6 6 7 6 6 4 5 5 5 6 5 6 6 5 4 4 4 4 6 8 10 9 7 9 8 7 7 10 9 9 8 7 9 7 5 4 4 3 3
3 4 3 6 5 5 5 5 7 7 5 4 5 5 6 7 6 6 5 5 4 6 5 5 8 6 6 6 6 7 7 7 7 7 9 8 8 6 5 5 5 4 4 4 3
3 3 3 4 5 5 7 5 6 6 5 5 6 5 5 6 6 7 6 5 5 5 5 5 8 7 8 6 6 7 7 6 7 7 7 7 7 5 6 4 4 4 4 4 4
1 1 3 5 4 5 5 5 5 5 4 4 5 5 5 5 4 4 4 4 5 5 6 6 7 8 9 8 8 9 7 7 6 6 6 8 7 5 5 5 5 4 4 4 3